Overview Statistics Trail Chart Weather Telemetry Raw packets
 

This is the latest recevied weather packets stored in our database for station/object KE8WMS. If no packets are shown the sender has not sent any weather packets the latest 10 day(s).

<< 103 104 105 106 107 108 109 >>
Time Temp. Humidity Pressure Rain* Wind** Luminosity Snow
1777039035 23.89° C 59% 1005.2 hPa 0 mm - 434 W/m² -
1777038730 22.78° C 58% 1005.2 hPa 0 mm - 403 W/m² -
1777038426 22.78° C 58% 1005.5 hPa 0 mm - 104 W/m² -
1777038121 22.22° C 59% 1005.5 hPa 0 mm - 158 W/m² -
1777037816 22.22° C 59% 1005.7 hPa 0 mm - 84 W/m² -
1777037513 21.67° C 61% 1005.8 hPa 0 mm - 86 W/m² -
1777037209 21.67° C 60% 1005.8 hPa 0 mm - 80 W/m² -
1777036906 21.11° C 61% 1005.7 hPa 0 mm - 83 W/m² -
1777036604 21.11° C 60% 1005.7 hPa 0 mm - 133 W/m² -
1777036303 20.56° C 62% 1005.8 hPa 0 mm - 99 W/m² -
1777036000 20.56° C 63% 1005.9 hPa 0 mm - 97 W/m² -
1777035699 20° C 63% 1005.9 hPa 0 mm - 111 W/m² -
1777035396 20° C 64% 1005.6 hPa 0 mm - 96 W/m² -
1777035091 19.44° C 66% 1005.6 hPa 0 mm - 88 W/m² -
1777034788 18.89° C 67% 1005.8 hPa 0 mm - 112 W/m² -
1777034486 18.89° C 69% 1006 hPa 0 mm - 96 W/m² -
1777034182 18.33° C 71% 1005.9 hPa 0 mm - 119 W/m² -
1777033881 17.78° C 71% 1005.7 hPa 0 mm - 96 W/m² -
1777033578 17.22° C 75% 1005.6 hPa 0 mm - 101 W/m² -
1777033275 16.67° C 76% 1005.8 hPa 0 mm - 78 W/m² -
1777032973 16.67° C 76% 1006 hPa 0 mm - 72 W/m² -
1777032677 16.67° C 78% 1005.7 hPa 0 mm - 69 W/m² -
1777032363 16.11° C 78% 1005.9 hPa 0 mm - 58 W/m² -
1777032059 16.11° C 78% 1005.9 hPa 0 mm - 54 W/m² -
1777031755 16.11° C 77% 1005.6 hPa 0 mm - 44 W/m² -

* Rain latest hour (hover to see other rain measurements)
** Current wind speed in m/s (hover to see current wind gust speed)